Regional Weather Roundup
Issued by NWS

Home | Current Version | Previous Version | Text Only | Print | Product List | Glossary On
Versions: 1 2 3 4 5 6 7 8 9 10 11 12 13 14 15 16 17 18 19 20 21 22 23 24 25 26 27 28 29 30 31 32 33 34 35 36 37 38 39 40 41 42 43 44 45 46 47 48 49 50
000
ASUS42 KKEY 031210
RWRKEY

FLORIDA REGIONAL WEATHER ROUNDUP FOR THE FLORIDA KEYS
NATIONAL WEATHER SERVICE KEY WEST FLORIDA
800 AM EDT TUE MAY 03 2016

...SOUTH FLORIDA AND THE KEYS...

CITY           SKY/WX    TMP DP  RH WIND       PRES   REMARKS
FORT MYERS     MOSUNNY   74  73  97 SE7       29.95R
SW REGIONAL AP MOSUNNY   74  71  91 SE3       29.96R
NAPLES         MOSUNNY   76  73  91 E5        29.96R
MIAMI          PTSUNNY   80  73  79 VRB6      29.97R
WEST KENDALL   MOSUNNY   80  73  79 MISG      29.97R
HOMESTEAD      MOSUNNY   80  74  81 SE8       29.96R
MARATHON       MOSUNNY   81  76  84 SE10G17   29.94S
BOCA CHICA NAS PTSUNNY   81  76  84 SE10      29.95R
KEY WEST INTL  MOSUNNY   78  77  96 SE10      29.95R

...INTERNATIONAL WEATHER...

CITY           SKY/WX    TMP DP  RH WIND       PRES   REMARKS
NASSAU BAHAMAS MOSUNNY   81  77  89 E9        30.01S
CANCUN MEXICO  PTCLDY    81  77  89 E9        29.90R
COZUMEL MEXICO PTCLDY    73  73 100 SE5       29.90R

ADJACENT COASTAL WATERS...

STATION/POSITION TIME  SKY/WX   TEMP    WIND        PRES    WAVE
                                AIR SEA DIR/SP/G            HT/PER
                 (UTC)          (F)     (DEG/KT/KT) (MB)    (FT/S)
PULASKI SHOAL LI 1200            79     130/  8/  8 1013.8R
SAND KEY         1150            79     180/ 12/ 15 1014.3R
SOMBRERO KEY     NOT AVBL
LONG KEY         1100            80 81  150/ 17/ 19 1013.9F
MOLASSES REEF    1200            80 81  150/ 15/ 16 1014.9R
FOWEY ROCKS      NOT AVBL

$$



USA.gov is the U.S. government's official web portal to all federal, state and local government web resources and services.